Weather in Chapaevskoe

Russia / Karachay-Cherkess Republic     44°16′58″N   42°03′58″E
temp.,
°C
wind,
m/s
gust,
m/s
humid.,
%
clouds,
%
prec.,
mm/h
press.,
hPa
HPBL,
m
9 may, sun
sun900:00+13s3386100 0.0 101027
03:00+13sw2258100 0.0 101038
06:00+12w2374100 0.1 101161
09:00+14nnw5583100 0.4 1010763
12:00+8wnw81296100 6.1 1013634
15:00+5wnw81295100 11.0 1017977
18:00+2wsw61297100 4.7 1022636
21:00+4w71295100 7.3 1023938
10 may, mon
mon1000:00+4wsw5119129 0.2 1024594
03:00+2sw5108612 0.2 1024268
06:00+3wsw512827 0.0 1024521
09:00+7w8106873 0.3 10221538
12:00+10wnw8105776 0.8 10211882
15:00+10wnw8115653 1.0 10191968
18:00+7wnw7127799 0.3 10201329
21:00+4w6128780 0.6 1021808
11 may, tue
tue1100:00+3sw239292 0.0 101938
03:00+2sse3475100 0.0 101989
06:00+3ssw2379100 0.2 1018101
09:00+7s2363100 0.4 1017326
12:00+10e2356100 0.2 1017902
15:00+12e455599 0.2 10161360
18:00+11e596781 0.0 1016579
21:00+7ese388364 0.0 1018171
12 may, wed
wed1200:00+5ssw119045 0.0 101812
03:00+4ssw22915 0.0 101811
06:00+5ssw118490 0.0 101845
09:00+12e34680 0.0 1016655
12:00+17e54580 0.0 10151072
15:00+18e66580 0.0 10151131
18:00+15e610720 0.0 1015534
21:00+10ese249093 0.0 101569
13 may, thu
thu1300:00+9sse22905 0.0 101515
03:00+8sse22750 0.0 101521
06:00+10sse22700 0.0 101534
09:00+17e23535 0.0 1014357
12:00+22e565099 0.0 1013699
15:00+23e685798 0.0 1013758
18:00+19e7137398 0.0 1013446
21:00+14ese348897 0.0 101466